2020/11/16 23:27:41+0000,-42.27,-43.24,-35.07,-48.48,-56.60,-54.70
2020/11/16 23:28:33+0000,-41.34,-46.28,-35.22,-52.39,-55.91,-53.95
2020/11/16 23:29:25+0000,-42.52,-47.20,-35.33,-50.05,-56.54,-54.51
2020/11/16 23:30:17+0000,-41.56,-44.93,-35.23,-47.40,-55.62,-54.66
2020/11/16 23:31:17+0000,-41.58,-44.56,-35.66,-49.68,-56.11,-54.95
2020/11/16 23:32:09+0000,-41.63,-44.65,-35.04,-49.97,-55.93,-54.61
2020/11/16 23:33:01+0000,-41.53,-46.39,-35.24,-47.89,-56.08,-54.87
2020/11/16 23:33:53+0000,-42.08,-47.68,-35.62,-49.79,-54.70,-54.57
2020/11/16 23:34:45+0000,-41.89,-45.82,-35.87,-50.70,-54.83,-54.32
2020/11/16 23:35:37+0000,-41.57,-47.67,-35.21,-66.90,-55.72,-54.30
2020/11/16 23:36:29+0000,-41.57,-43.25,-35.97,-49.75,-56.12,-54.83
2020/11/16 23:37:21+0000,-41.02,-45.63,-35.51,-49.60,-55.78,-54.34
2020/11/16 23:38:13+0000,-38.45,-46.62,-35.70,-49.54,-55.09,-54.29
2020/11/16 23:39:05+0000,-36.62,-44.96,-35.81,-53.53,-55.58,-54.08
2020/11/16 23:39:58+0000,-37.66,-46.57,-36.38,-49.39,-56.25,-54.10
2020/11/16 23:40:50+0000,-39.16,-46.76,-35.82,-52.86,-56.07,-54.54
2020/11/16 23:41:49+0000,-36.23,-46.37,-35.36,-53.12,-56.24,-54.30
2020/11/16 23:42:42+0000,-36.33,-47.39,-33.49,-51.78,-56.12,-54.47
2020/11/16 23:43:34+0000,-36.91,-45.50,-35.86,-51.80,-56.26,-54.31
2020/11/16 23:44:26+0000,-38.74,-47.07,-34.97,-50.45,-55.91,-54.30
2020/11/16 23:45:18+0000,-36.91,-46.92,-33.79,-51.56,-55.95,-54.36
2020/11/16 23:46:10+0000,-37.40,-47.77,-35.45,-51.92,-55.70,-54.37
2020/11/16 23:47:02+0000,-35.95,-44.93,-35.30,-50.38,-56.11,-54.44
2020/11/16 23:47:54+0000,-38.04,-46.83,-36.10,-51.51,-55.87,-54.66
2020/11/16 23:48:46+0000,-39.47,-44.51,-34.68,-51.52,-56.31,-54.69
2020/11/16 23:49:38+0000,-40.51,-46.61,-35.17,-52.62,-56.82,-54.37
2020/11/16 23:50:30+0000,-40.46,-45.30,-35.78,-52.62,-55.63,-53.90
2020/11/16 23:51:30+0000,-40.22,-47.41,-35.76,-52.15,-56.36,-54.62
2020/11/16 23:52:22+0000,-40.53,-46.58,-35.31,-52.02,-56.31,-54.44
2020/11/16 23:53:14+0000,-40.70,-44.91,-35.91,-52.17,-56.06,-55.01
2020/11/16 23:54:06+0000,-40.20,-46.38,-35.69,-52.82,-55.19,-54.77
2020/11/16 23:54:58+0000,-40.65,-46.86,-35.75,-50.63,-55.89,-55.18
2020/11/16 23:55:50+0000,-39.95,-46.47,-35.23,-53.13,-56.14,-54.59
2020/11/16 23:56:42+0000,-39.41,-47.03,-35.30,-50.94,-56.08,-56.14
2020/11/16 23:57:34+0000,-40.30,-47.15,-35.69,-52.43,-55.87,-55.74
2020/11/16 23:58:26+0000,-41.21,-46.12,-35.82,-50.47,-56.11,-55.30
2020/11/16 23:59:18+0000,-40.78,-47.14,-34.98,-51.29,-55.78,-55.82
2020/11/17 00:00:11+0000,-40.55,-46.93,-35.42,-51.15,-56.48,-55.67
2020/11/17 00:01:16+0000,-40.49,-45.40,-35.24,-51.06,-55.99,-55.01
2020/11/17 00:02:08+0000,-39.98,-45.02,-36.49,-51.03,-55.57,-55.11
2020/11/17 00:03:00+0000,-40.52,-48.03,-34.31,-53.13,-55.25,-55.04
2020/11/17 00:03:52+0000,-39.82,-46.43,-34.04,-51.81,-55.75,-55.15
2020/11/17 00:04:44+0000,-40.86,-46.88,-35.43,-51.48,-55.42,-55.38
2020/11/17 00:05:36+0000,-40.65,-47.80,-34.70,-51.85,-55.98,-55.74
2020/11/17 00:06:28+0000,-40.95,-46.31,-34.95,-50.99,-55.55,-55.50
2020/11/17 00:07:20+0000,-40.97,-47.51,-35.01,-51.78,-56.71,-55.03
2020/11/17 00:08:12+0000,-40.65,-47.13,-35.47,-52.20,-55.90,-55.70
2020/11/17 00:09:04+0000,-40.71,-47.84,-35.31,-52.62,-55.88,-55.08
2020/11/17 00:09:57+0000,-41.06,-48.55,-35.89,-51.84,-56.10,-55.32
2020/11/17 00:10:49+0000,-40.89,-46.29,-35.05,-53.76,-55.71,-56.20
2020/11/17 00:11:54+0000,-40.79,-47.16,-34.17,-52.51,-55.59,-55.78
2020/11/17 00:12:46+0000,-40.57,-46.17,-35.16,-52.71,-55.97,-56.11
2020/11/17 00:13:38+0000,-41.63,-47.06,-33.48,-51.41,-56.10,-55.59
2020/11/17 00:14:30+0000,-40.88,-48.76,-35.30,-52.27,-55.41,-55.34
2020/11/17 00:15:22+0000,-40.54,-48.38,-35.00,-51.33,-55.54,-55.94
2020/11/17 00:16:14+0000,-40.94,-47.95,-34.67,-51.45,-56.19,-56.10
2020/11/17 00:17:06+0000,-40.65,-47.36,-34.96,-49.07,-55.13,-55.94
2020/11/17 00:17:59+0000,-41.36,-46.61,-34.87,-51.65,-55.13,-55.86
2020/11/17 00:18:51+0000,-40.71,-47.83,-35.09,-52.19,-54.29,-55.99
2020/11/17 00:19:43+0000,-41.03,-46.52,-35.09,-48.43,-55.58,-55.85
2020/11/17 00:20:35+0000,-40.53,-48.12,-33.96,-52.22,-55.24,-55.90
2020/11/17 00:21:32+0000,-40.56,-47.85,-34.32,-51.07,-54.39,-56.53
2020/11/17 00:22:24+0000,-39.08,-46.48,-35.02,-50.12,-54.86,-56.27
2020/11/17 00:23:16+0000,-35.62,-46.47,-35.17,-50.59,-55.22,-56.15
2020/11/17 00:24:08+0000,-40.63,-45.67,-34.82,-48.31,-54.79,-56.36
2020/11/17 00:25:00+0000,-40.89,-47.53,-34.58,-51.86,-54.94,-56.46
2020/11/17 00:25:52+0000,-39.40,-48.67,-34.74,-50.30,-54.74,-55.72
2020/11/17 00:26:44+0000,-40.23,-46.15,-35.35,-51.12,-54.75,-55.70
2020/11/17 00:27:36+0000,-40.80,-48.59,-34.39,-50.23,-54.43,-55.63
2020/11/17 00:28:28+0000,-40.80,-46.09,-35.40,-50.29,-55.09,-55.49
2020/11/17 00:29:20+0000,-40.16,-47.75,-34.64,-52.18,-54.81,-55.72
2020/11/17 00:30:13+0000,-41.05,-46.53,-35.05,-51.51,-55.04,-54.74
2020/11/17 00:31:13+0000,-40.26,-47.67,-34.44,-51.37,-54.24,-55.25
2020/11/17 00:32:05+0000,-41.51,-47.42,-34.47,-51.97,-54.37,-54.64
2020/11/17 00:32:57+0000,-40.09,-47.31,-34.48,-50.57,-54.79,-54.98
2020/11/17 00:33:49+0000,-40.36,-47.75,-34.56,-52.23,-54.69,-55.33
2020/11/17 00:34:41+0000,-40.90,-47.99,-34.67,-52.31,-54.93,-55.10
2020/11/17 00:35:33+0000,-39.87,-46.23,-34.77,-51.36,-53.67,-54.74
2020/11/17 00:36:25+0000,-39.11,-47.10,-35.43,-50.97,-54.95,-54.63
2020/11/17 00:37:17+0000,-40.13,-46.47,-34.70,-51.66,-54.20,-55.36
2020/11/17 00:38:09+0000,-40.93,-45.57,-35.13,-51.87,-54.53,-54.96
2020/11/17 00:39:01+0000,-40.14,-48.21,-34.89,-51.64,-54.22,-55.53
2020/11/17 00:39:53+0000,-40.44,-46.60,-34.78,-51.07,-54.85,-55.69
2020/11/17 00:40:46+0000,-40.27,-46.69,-34.78,-51.77,-54.79,-54.84
2020/11/17 00:41:45+0000,-41.06,-46.45,-35.58,-51.77,-54.62,-55.82
2020/11/17 00:42:37+0000,-39.99,-48.69,-34.56,-51.52,-54.38,-55.41
2020/11/17 00:43:29+0000,-40.91,-42.56,-34.62,-51.40,-54.97,-54.66
2020/11/17 00:44:21+0000,-41.12,-46.99,-34.20,-51.32,-54.78,-55.31
2020/11/17 00:45:14+0000,-40.33,-46.66,-35.13,-51.07,-54.63,-55.30
2020/11/17 00:46:06+0000,-40.83,-47.65,-34.82,-51.21,-54.48,-55.64
2020/11/17 00:46:58+0000,-39.20,-47.26,-35.11,-51.20,-54.77,-55.74
2020/11/17 00:47:50+0000,-39.42,-46.77,-34.97,-51.24,-53.37,-54.49
2020/11/17 00:48:42+0000,-40.19,-46.03,-34.52,-50.36,-54.71,-55.08
2020/11/17 00:49:34+0000,-39.80,-43.98,-34.58,-49.68,-54.98,-55.55
2020/11/17 00:50:26+0000,-39.72,-47.12,-34.80,-51.53,-54.80,-55.55
2020/11/17 00:51:26+0000,-39.51,-47.69,-35.09,-51.84,-55.48,-55.65
2020/11/17 00:52:18+0000,-40.27,-47.89,-34.36,-51.48,-55.18,-55.56
2020/11/17 00:53:10+0000,-40.15,-47.01,-34.49,-51.19,-55.02,-55.82
2020/11/17 00:54:02+0000,-40.76,-46.75,-34.77,-52.01,-54.55,-48.94
2020/11/17 00:54:54+0000,-33.34,-47.75,-35.52,-51.54,-55.23,-54.95
2020/11/17 00:55:46+0000,-40.30,-47.30,-34.57,-51.70,-55.11,-55.14
2020/11/17 00:56:38+0000,-39.00,-47.08,-34.97,-51.27,-55.12,-55.58
2020/11/17 00:57:30+0000,-41.50,-45.28,-35.49,-51.42,-54.54,-55.70
2020/11/17 00:58:23+0000,-40.42,-47.79,-35.02,-51.78,-54.33,-55.21
2020/11/17 00:59:15+0000,-41.01,-46.00,-34.95,-51.45,-54.58,-55.94
2020/11/17 01:00:07+0000,-40.42,-47.88,-34.96,-51.69,-54.51,-55.39
2020/11/17 01:01:07+0000,-40.24,-47.15,-35.27,-51.35,-54.22,-55.68
2020/11/17 01:01:59+0000,-41.51,-45.67,-34.20,-51.21,-53.52,-55.38
2020/11/17 01:02:51+0000,-40.05,-46.93,-35.14,-51.82,-53.54,-55.69
2020/11/17 01:03:43+0000,-41.47,-46.02,-35.66,-51.33,-54.59,-55.07
2020/11/17 01:04:35+0000,-41.00,-48.66,-35.22,-51.41,-54.51,-55.26
2020/11/17 01:05:27+0000,-41.61,-47.45,-35.02,-51.56,-54.39,-55.47
2020/11/17 01:06:19+0000,-40.46,-48.08,-34.23,-51.91,-54.23,-55.36
2020/11/17 01:07:11+0000,-41.08,-49.29,-35.93,-51.20,-54.51,-55.54
2020/11/17 01:08:03+0000,-41.43,-49.41,-35.11,-51.38,-54.75,-55.21
2020/11/17 01:08:55+0000,-40.76,-48.61,-35.20,-50.68,-54.30,-55.16
2020/11/17 01:09:48+0000,-40.35,-47.36,-35.11,-51.36,-54.81,-54.80
2020/11/17 01:10:40+0000,-40.35,-48.43,-34.56,-51.16,-54.58,-54.84
2020/11/17 01:11:51+0000,-40.16,-50.45,-35.42,-51.51,-54.95,-54.31
2020/11/17 01:12:43+0000,-41.06,-49.23,-35.87,-51.34,-55.12,-54.89
2020/11/17 01:13:35+0000,-40.39,-50.32,-34.73,-51.69,-55.10,-54.69
2020/11/17 01:14:27+0000,-39.86,-49.11,-35.71,-50.99,-55.04,-53.86
2020/11/17 01:15:19+0000,-39.36,-47.34,-35.36,-51.56,-54.34,-54.73
2020/11/17 01:16:11+0000,-41.42,-50.11,-35.71,-50.90,-55.22,-54.99
2020/11/17 01:17:03+0000,-40.65,-47.69,-33.90,-50.18,-55.39,-54.51
2020/11/17 01:17:55+0000,-40.06,-48.10,-35.00,-51.64,-54.87,-54.90
2020/11/17 01:18:47+0000,-39.57,-47.44,-35.13,-50.31,-54.69,-54.95
2020/11/17 01:19:40+0000,-40.93,-48.74,-35.13,-51.33,-55.27,-54.18
2020/11/17 01:20:32+0000,-40.45,-46.64,-35.17,-51.32,-55.39,-54.41
2020/11/17 01:21:37+0000,-39.96,-47.33,-35.32,-51.43,-54.82,-54.70
2020/11/17 01:22:29+0000,-40.14,-47.02,-34.95,-51.24,-54.74,-54.64
2020/11/17 01:23:21+0000,-39.44,-46.97,-35.49,-51.35,-55.02,-55.63
2020/11/17 01:24:13+0000,-40.52,-48.18,-35.08,-51.57,-55.35,-55.23
2020/11/17 01:25:05+0000,-40.61,-49.25,-35.03,-50.81,-55.44,-54.93
2020/11/17 01:25:57+0000,-38.50,-48.45,-34.94,-51.01,-54.45,-55.10
2020/11/17 01:26:49+0000,-38.72,-47.12,-34.71,-51.46,-55.17,-55.53
2020/11/17 01:27:41+0000,-41.08,-49.50,-34.83,-50.61,-55.07,-55.96
2020/11/17 01:28:33+0000,-41.27,-47.69,-34.68,-51.39,-54.63,-55.15
2020/11/17 01:29:25+0000,-39.20,-48.86,-34.95,-51.00,-54.89,-55.52
2020/11/17 01:30:18+0000,-38.93,-48.71,-34.86,-50.67,-54.59,-55.35
2020/11/17 01:31:15+0000,-40.14,-46.17,-34.89,-51.01,-54.34,-55.03
2020/11/17 01:32:07+0000,-40.44,-50.63,-34.21,-50.70,-51.95,-55.38
2020/11/17 01:32:59+0000,-39.68,-50.46,-34.48,-50.63,-53.49,-54.58
2020/11/17 01:33:51+0000,-37.89,-50.10,-35.05,-50.99,-54.92,-55.47
2020/11/17 01:34:43+0000,-39.88,-47.65,-35.43,-50.21,-55.43,-54.67
2020/11/17 01:35:35+0000,-40.26,-48.42,-34.52,-50.58,-55.24,-55.44
2020/11/17 01:36:27+0000,-38.47,-50.44,-35.22,-51.06,-55.17,-55.48
2020/11/17 01:37:19+0000,-39.48,-50.19,-34.34,-51.31,-55.06,-55.34
2020/11/17 01:38:11+0000,-40.41,-50.12,-35.02,-50.92,-55.25,-55.19
2020/11/17 01:39:03+0000,-38.61,-48.66,-34.99,-51.16,-54.92,-55.53
2020/11/17 01:39:56+0000,-38.98,-50.54,-34.42,-50.44,-55.05,-54.96
2020/11/17 01:40:48+0000,-39.57,-50.04,-35.10,-50.87,-54.02,-54.74
2020/11/17 01:42:05+0000,-40.14,-51.26,-34.42,-50.84,-54.21,-54.94
2020/11/17 01:42:57+0000,-39.50,-48.58,-34.90,-50.66,-54.43,-55.31
2020/11/17 01:43:49+0000,-39.65,-49.78,-34.64,-50.87,-55.07,-55.62
2020/11/17 01:44:41+0000,-40.12,-50.14,-34.84,-50.66,-55.19,-54.99
2020/11/17 01:45:33+0000,-40.53,-50.42,-35.61,-50.85,-55.10,-55.23
2020/11/17 01:46:26+0000,-39.66,-50.75,-34.85,-50.27,-55.54,-55.65
2020/11/17 01:47:18+0000,-39.20,-49.20,-35.10,-51.66,-54.98,-55.45
2020/11/17 01:48:10+0000,-38.96,-50.62,-34.72,-50.81,-54.78,-54.92
2020/11/17 01:49:02+0000,-39.57,-49.53,-35.14,-50.21,-55.18,-55.00
2020/11/17 01:49:54+0000,-40.06,-49.73,-35.23,-50.57,-55.20,-55.07
2020/11/17 01:50:46+0000,-40.81,-49.51,-34.99,-50.64,-54.98,-55.63
2020/11/17 01:51:46+0000,-42.04,-49.50,-35.42,-50.28,-55.23,-55.23
2020/11/17 01:52:38+0000,-40.83,-50.31,-35.07,-50.99,-55.21,-55.42
2020/11/17 01:53:30+0000,-40.70,-50.39,-35.48,-50.84,-55.14,-55.34
2020/11/17 01:54:22+0000,-39.97,-50.14,-35.46,-50.35,-55.22,-55.26
2020/11/17 01:55:14+0000,-38.91,-49.13,-34.98,-51.73,-55.43,-55.52
2020/11/17 01:56:06+0000,-39.73,-49.75,-34.62,-50.60,-54.88,-55.51
2020/11/17 01:56:58+0000,-39.77,-50.17,-35.00,-51.48,-54.07,-55.47
2020/11/17 01:57:50+0000,-38.78,-48.46,-35.12,-50.28,-55.58,-55.33
2020/11/17 01:58:42+0000,-39.84,-49.58,-35.59,-50.75,-55.36,-55.39
2020/11/17 01:59:34+0000,-40.29,-49.33,-35.09,-51.13,-55.78,-55.55
2020/11/17 02:00:26+0000,-36.47,-50.01,-35.37,-49.59,-55.31,-54.90
2020/11/17 02:01:48+0000,-36.99,-49.66,-34.96,-50.53,-55.98,-56.11
2020/11/17 02:02:40+0000,-37.63,-49.76,-35.50,-50.58,-55.57,-55.24
2020/11/17 02:03:32+0000,-38.24,-49.64,-35.48,-50.45,-55.77,-55.93
2020/11/17 02:04:24+0000,-35.86,-49.70,-35.55,-50.58,-55.57,-54.92
2020/11/17 02:05:16+0000,-37.13,-49.24,-34.81,-50.97,-55.73,-55.37
2020/11/17 02:06:08+0000,-37.32,-49.59,-34.73,-50.22,-55.64,-55.27
2020/11/17 02:07:01+0000,-37.09,-48.88,-35.70,-51.17,-55.09,-55.21
2020/11/17 02:07:53+0000,-38.00,-50.08,-35.54,-50.53,-55.30,-54.82
2020/11/17 02:08:45+0000,-37.26,-49.90,-35.27,-50.52,-54.83,-54.63
2020/11/17 02:09:37+0000,-36.79,-49.76,-35.54,-50.65,-56.00,-54.32
2020/11/17 02:10:29+0000,-38.39,-48.98,-34.79,-51.02,-53.26,-54.54
2020/11/17 02:11:29+0000,-39.22,-49.95,-34.72,-50.91,-55.47,-54.87
2020/11/17 02:12:21+0000,-36.79,-50.00,-35.62,-50.95,-55.52,-54.52
2020/11/17 02:13:13+0000,-36.66,-49.43,-35.17,-50.20,-54.95,-54.42
2020/11/17 02:14:05+0000,-37.09,-49.99,-34.91,-50.22,-55.22,-55.02
2020/11/17 02:14:57+0000,-38.07,-49.54,-34.49,-51.40,-56.04,-54.87
2020/11/17 02:15:49+0000,-36.53,-49.58,-34.88,-50.82,-54.40,-55.19
2020/11/17 02:16:41+0000,-37.87,-46.26,-35.15,-50.94,-55.76,-55.36
2020/11/17 02:17:33+0000,-36.66,-47.79,-35.32,-50.99,-55.77,-55.39
2020/11/17 02:18:25+0000,-35.58,-46.10,-35.12,-50.93,-55.03,-55.02
2020/11/17 02:19:17+0000,-37.48,-46.06,-35.19,-51.49,-55.45,-55.27
2020/11/17 02:20:10+0000,-37.53,-45.87,-35.11,-50.77,-54.50,-55.29
2020/11/17 02:21:14+0000,-36.37,-47.42,-34.98,-50.60,-55.22,-55.65
2020/11/17 02:22:07+0000,-37.33,-47.11,-34.87,-50.78,-55.36,-55.04
2020/11/17 02:22:59+0000,-36.77,-46.54,-35.13,-50.53,-55.32,-55.26
2020/11/17 02:23:51+0000,-35.69,-47.14,-35.17,-50.13,-54.74,-55.56
2020/11/17 02:24:43+0000,-36.91,-46.15,-35.29,-50.42,-54.18,-54.77
2020/11/17 02:25:35+0000,-37.78,-47.50,-34.99,-50.77,-53.95,-55.77
2020/11/17 02:26:27+0000,-36.76,-46.72,-35.38,-50.69,-55.33,-55.48
2020/11/17 02:27:19+0000,-36.32,-45.96,-35.43,-50.42,-55.17,-54.58
2020/11/17 02:28:11+0000,-36.14,-47.29,-34.73,-50.54,-54.74,-55.57
2020/11/17 02:29:03+0000,-37.11,-47.71,-35.35,-50.39,-55.34,-55.26
2020/11/17 02:29:55+0000,-37.47,-47.14,-35.12,-50.06,-55.68,-54.91
2020/11/17 02:30:47+0000,-36.71,-45.34,-34.94,-49.79,-54.92,-54.94
2020/11/17 02:31:48+0000,-36.51,-46.65,-35.35,-50.47,-54.78,-54.98
2020/11/17 02:32:40+0000,-38.18,-46.27,-35.31,-50.58,-55.68,-55.33
2020/11/17 02:33:32+0000,-38.44,-46.41,-34.89,-50.58,-54.55,-54.83
2020/11/17 02:34:24+0000,-37.25,-44.88,-35.01,-50.43,-55.50,-55.81
2020/11/17 02:35:16+0000,-36.28,-47.26,-35.01,-50.30,-55.13,-55.26
2020/11/17 02:36:08+0000,-37.76,-46.16,-34.72,-50.47,-53.31,-55.31
2020/11/17 02:37:00+0000,-36.58,-45.43,-35.04,-50.26,-54.26,-55.40
2020/11/17 02:37:52+0000,-36.12,-46.13,-34.19,-49.90,-55.40,-55.54
2020/11/17 02:38:44+0000,-37.66,-46.04,-34.63,-50.22,-55.43,-55.06
2020/11/17 02:39:36+0000,-37.01,-46.69,-34.69,-49.58,-55.31,-55.29
2020/11/17 02:40:29+0000,-35.87,-46.35,-34.31,-50.39,-55.48,-54.99
2020/11/17 02:41:28+0000,-35.81,-46.21,-35.14,-50.52,-55.07,-54.73
2020/11/17 02:42:20+0000,-36.24,-45.70,-34.72,-49.95,-55.73,-55.02
2020/11/17 02:43:12+0000,-37.02,-45.92,-34.16,-50.17,-55.22,-55.15
2020/11/17 02:44:04+0000,-37.37,-46.20,-35.18,-50.38,-55.17,-54.83
2020/11/17 02:44:56+0000,-35.72,-47.33,-34.21,-50.61,-56.20,-55.04
2020/11/17 02:45:49+0000,-35.84,-46.31,-34.68,-50.64,-55.83,-55.05
2020/11/17 02:46:41+0000,-37.30,-45.32,-34.95,-52.22,-55.14,-55.09
2020/11/17 02:47:33+0000,-37.08,-45.76,-34.37,-52.18,-55.55,-55.28
2020/11/17 02:48:25+0000,-35.98,-45.94,-34.19,-51.68,-54.86,-54.95
2020/11/17 02:49:17+0000,-35.95,-45.66,-34.82,-52.59,-55.21,-54.85
2020/11/17 02:50:09+0000,-37.12,-45.65,-34.49,-51.93,-55.64,-54.66
2020/11/17 02:51:08+0000,-35.63,-47.55,-33.64,-52.05,-55.28,-49.26
2020/11/17 02:52:00+0000,-36.59,-46.76,-34.95,-52.16,-55.58,-53.14
2020/11/17 02:52:52+0000,-36.08,-46.79,-34.69,-51.94,-55.05,-50.45
2020/11/17 02:53:44+0000,-36.20,-47.25,-34.93,-52.16,-54.00,-49.67
2020/11/17 02:54:37+0000,-37.71,-45.59,-34.66,-52.26,-55.05,-51.04
2020/11/17 02:55:29+0000,-36.29,-45.95,-34.45,-52.13,-53.49,-50.04
2020/11/17 02:56:21+0000,-35.69,-46.51,-34.56,-51.72,-53.94,-51.40
2020/11/17 02:57:13+0000,-37.71,-49.44,-34.64,-52.03,-54.44,-51.64
2020/11/17 02:58:05+0000,-38.10,-49.59,-34.08,-51.57,-55.40,-51.20
2020/11/17 02:58:57+0000,-36.01,-49.73,-35.12,-52.40,-55.65,-51.25
2020/11/17 02:59:49+0000,-37.43,-49.42,-34.38,-52.57,-55.68,-51.40
2020/11/17 03:00:41+0000,-35.97,-50.29,-33.82,-51.95,-55.36,-52.04
2020/11/17 03:01:42+0000,-38.01,-48.70,-34.02,-51.85,-55.56,-51.08
2020/11/17 03:02:34+0000,-35.96,-49.12,-34.68,-51.62,-55.78,-51.93
2020/11/17 03:03:26+0000,-36.11,-49.07,-34.81,-52.42,-55.67,-49.11
2020/11/17 03:04:18+0000,-37.59,-48.91,-34.33,-52.58,-55.54,-52.03
2020/11/17 03:05:10+0000,-35.18,-47.77,-34.73,-52.87,-56.37,-51.40
2020/11/17 03:06:02+0000,-36.34,-49.08,-34.77,-52.22,-55.79,-50.01
2020/11/17 03:06:54+0000,-37.72,-49.35,-34.23,-52.36,-55.08,-50.28
2020/11/17 03:07:46+0000,-37.43,-49.62,-34.04,-51.98,-55.52,-49.73
2020/11/17 03:08:38+0000,-35.85,-49.62,-34.37,-52.12,-55.59,-50.00
2020/11/17 03:09:30+0000,-35.82,-49.40,-34.47,-51.94,-55.98,-50.07
2020/11/17 03:10:23+0000,-37.43,-49.99,-34.57,-52.79,-55.68,-54.36
2020/11/17 03:11:23+0000,-35.83,-49.53,-34.13,-52.02,-55.55,-54.26
2020/11/17 03:12:15+0000,-36.86,-49.27,-34.03,-52.51,-55.74,-53.93
2020/11/17 03:13:07+0000,-37.68,-47.39,-34.28,-52.22,-55.95,-53.78
2020/11/17 03:13:59+0000,-38.32,-46.84,-34.57,-51.32,-55.79,-51.55
2020/11/17 03:14:51+0000,-37.22,-46.63,-34.17,-51.74,-56.35,-51.60
2020/11/17 03:15:43+0000,-37.91,-47.12,-34.47,-52.24,-55.32,-52.49
2020/11/17 03:16:35+0000,-38.33,-46.99,-34.20,-52.27,-54.85,-52.95
2020/11/17 03:17:27+0000,-37.10,-45.89,-34.20,-52.49,-55.73,-49.99
2020/11/17 03:18:19+0000,-36.90,-46.76,-34.61,-52.22,-55.55,-53.47
2020/11/17 03:19:11+0000,-38.01,-47.06,-34.59,-51.67,-55.73,-51.83
2020/11/17 03:20:03+0000,-36.53,-47.65,-34.39,-51.79,-55.65,-51.32
2020/11/17 03:21:02+0000,-37.12,-46.97,-34.33,-51.86,-55.43,-51.66
2020/11/17 03:21:54+0000,-37.38,-47.64,-34.59,-52.28,-55.98,-51.94
2020/11/17 03:22:46+0000,-37.56,-47.62,-34.28,-51.63,-55.52,-51.49
2020/11/17 03:23:39+0000,-36.91,-47.22,-34.87,-51.88,-55.72,-51.27
2020/11/17 03:24:31+0000,-37.69,-47.50,-34.38,-51.54,-55.67,-51.35
2020/11/17 03:25:23+0000,-36.48,-46.13,-34.44,-51.83,-55.31,-51.83
2020/11/17 03:26:15+0000,-38.39,-46.97,-33.82,-51.96,-55.59,-50.98
2020/11/17 03:27:07+0000,-36.92,-45.88,-33.82,-51.00,-54.84,-51.29
2020/11/17 03:27:59+0000,-37.02,-45.51,-33.77,-51.57,-55.27,-52.00
2020/11/17 03:28:51+0000,-38.10,-46.19,-33.93,-51.33,-55.79,-52.05
2020/11/17 03:29:43+0000,-38.39,-45.50,-34.15,-51.37,-55.39,-51.81
2020/11/17 03:30:35+0000,-37.03,-45.59,-33.67,-51.55,-54.96,-51.88
2020/11/17 03:31:38+0000,-37.82,-47.02,-33.88,-51.68,-54.04,-51.60
2020/11/17 03:32:30+0000,-36.93,-46.01,-34.34,-50.64,-54.67,-51.57
2020/11/17 03:33:22+0000,-37.20,-46.38,-34.57,-51.62,-54.79,-51.52
2020/11/17 03:34:15+0000,-38.05,-47.76,-33.90,-50.78,-55.08,-51.74
2020/11/17 03:35:07+0000,-36.71,-46.74,-34.37,-51.25,-54.76,-51.44
2020/11/17 03:35:59+0000,-38.29,-45.87,-33.74,-51.13,-54.50,-51.66
2020/11/17 03:36:51+0000,-38.41,-47.88,-33.91,-51.29,-54.90,-51.04
2020/11/17 03:37:43+0000,-37.22,-47.13,-33.89,-51.29,-54.99,-51.26
2020/11/17 03:38:35+0000,-37.73,-47.60,-34.71,-51.51,-55.32,-51.55
2020/11/17 03:39:27+0000,-38.66,-49.77,-33.95,-50.56,-55.10,-51.83
2020/11/17 03:40:19+0000,-37.53,-49.42,-34.02,-51.28,-54.85,-51.81
2020/11/17 03:41:19+0000,-38.05,-49.94,-34.59,-51.19,-55.53,-51.67
2020/11/17 03:42:11+0000,-36.32,-49.22,-34.26,-51.23,-54.83,-52.10
2020/11/17 03:43:03+0000,-37.87,-49.34,-34.05,-51.48,-55.16,-51.97
2020/11/17 03:43:55+0000,-37.24,-46.54,-34.42,-51.74,-54.98,-51.42
2020/11/17 03:44:47+0000,-36.34,-45.85,-34.13,-51.58,-53.89,-51.64
2020/11/17 03:45:39+0000,-37.48,-47.57,-34.51,-52.27,-54.77,-51.72
2020/11/17 03:46:31+0000,-36.59,-47.06,-34.28,-51.96,-54.48,-51.13
2020/11/17 03:47:23+0000,-36.16,-47.28,-34.34,-51.55,-54.07,-51.33
2020/11/17 03:48:15+0000,-37.47,-46.16,-34.66,-51.87,-53.66,-51.90
2020/11/17 03:49:07+0000,-37.16,-45.73,-34.46,-51.69,-54.27,-51.68
2020/11/17 03:49:59+0000,-37.01,-47.06,-34.57,-51.70,-54.35,-51.54
2020/11/17 03:50:51+0000,-36.53,-46.42,-34.74,-50.98,-53.63,-51.69
2020/11/17 03:51:56+0000,-37.96,-47.40,-34.93,-51.10,-53.93,-51.39
2020/11/17 03:52:48+0000,-36.84,-47.74,-34.98,-51.42,-53.58,-51.67
2020/11/17 03:53:40+0000,-38.14,-46.89,-34.07,-51.74,-53.83,-51.67
2020/11/17 03:54:32+0000,-38.31,-48.07,-34.94,-51.59,-54.10,-51.78
2020/11/17 03:55:24+0000,-35.92,-47.54,-34.54,-52.04,-53.91,-50.83
2020/11/17 03:56:16+0000,-38.64,-47.47,-34.50,-52.09,-53.96,-51.02
2020/11/17 03:57:08+0000,-36.43,-48.68,-34.75,-52.04,-52.93,-51.53
2020/11/17 03:58:01+0000,-38.37,-49.95,-34.98,-52.01,-53.45,-51.44
2020/11/17 03:58:53+0000,-37.47,-50.25,-34.70,-52.24,-53.54,-52.38
2020/11/17 03:59:45+0000,-37.55,-49.92,-34.36,-52.22,-54.58,-51.82
2020/11/17 04:00:37+0000,-36.57,-50.62,-34.56,-51.75,-54.30,-51.71
2020/11/17 04:01:37+0000,-36.56,-50.45,-34.35,-51.94,-55.07,-51.97
2020/11/17 04:02:29+0000,-38.06,-50.18,-34.57,-51.69,-55.43,-51.74
2020/11/17 04:03:21+0000,-37.50,-49.95,-34.94,-52.21,-55.36,-52.12
2020/11/17 04:04:13+0000,-37.45,-49.69,-35.00,-51.96,-55.39,-51.57
2020/11/17 04:05:05+0000,-37.79,-50.17,-34.53,-52.51,-54.95,-51.34
2020/11/17 04:05:57+0000,-36.51,-50.67,-35.43,-51.89,-54.69,-51.28
2020/11/17 04:06:49+0000,-36.67,-47.92,-34.54,-51.53,-53.64,-51.33
2020/11/17 04:07:41+0000,-36.79,-48.45,-33.49,-52.02,-53.95,-51.60
2020/11/17 04:08:34+0000,-36.56,-47.00,-33.42,-52.53,-54.21,-51.04
2020/11/17 04:09:26+0000,-37.96,-48.24,-33.69,-52.20,-53.97,-51.49
2020/11/17 04:10:18+0000,-36.92,-47.97,-33.20,-52.55,-53.54,-51.54
2020/11/17 04:11:18+0000,-37.28,-46.45,-33.62,-52.79,-53.27,-51.98
2020/11/17 04:12:10+0000,-36.86,-47.60,-33.43,-52.62,-53.67,-51.90
2020/11/17 04:13:03+0000,-38.52,-47.20,-33.81,-51.98,-54.03,-52.26
2020/11/17 04:13:55+0000,-37.99,-48.40,-33.09,-52.24,-53.82,-51.70
2020/11/17 04:14:47+0000,-37.26,-47.32,-33.06,-51.66,-52.41,-51.79
2020/11/17 04:15:39+0000,-38.02,-46.95,-34.40,-52.48,-52.10,-51.74
2020/11/17 04:16:31+0000,-37.29,-47.22,-33.99,-52.01,-53.94,-51.75
2020/11/17 04:17:23+0000,-37.54,-48.13,-35.11,-52.36,-53.05,-51.46
2020/11/17 04:18:15+0000,-37.04,-48.03,-35.04,-51.70,-53.91,-51.42
2020/11/17 04:19:07+0000,-38.65,-47.48,-34.42,-51.77,-53.81,-51.61
2020/11/17 04:19:59+0000,-38.92,-47.63,-34.87,-52.56,-53.27,-51.27
2020/11/17 04:20:51+0000,-38.75,-48.21,-34.75,-52.36,-54.22,-51.37
2020/11/17 04:21:51+0000,-38.63,-45.74,-34.70,-52.19,-54.89,-52.10
2020/11/17 04:22:43+0000,-37.84,-46.35,-34.11,-51.44,-55.05,-51.60
2020/11/17 04:23:35+0000,-38.28,-45.76,-34.53,-52.67,-55.43,-52.24
2020/11/17 04:24:27+0000,-37.60,-45.62,-34.82,-53.00,-56.34,-50.95
2020/11/17 04:25:19+0000,-38.18,-45.46,-34.81,-52.36,-56.40,-51.66
2020/11/17 04:26:11+0000,-36.21,-45.28,-34.53,-53.07,-55.41,-50.72
2020/11/17 04:27:03+0000,-37.65,-45.85,-35.48,-52.65,-55.13,-50.63
2020/11/17 04:27:55+0000,-36.75,-45.71,-34.28,-52.96,-55.86,-51.17
2020/11/17 04:28:47+0000,-37.64,-45.65,-34.65,-51.97,-55.82,-53.35
2020/11/17 04:29:40+0000,-36.78,-47.83,-34.46,-52.08,-55.97,-51.63
2020/11/17 04:30:32+0000,-36.84,-46.21,-34.38,-51.86,-53.55,-51.54
2020/11/17 04:31:32+0000,-35.80,-44.21,-34.43,-51.70,-55.81,-52.56
2020/11/17 04:32:24+0000,-37.68,-45.35,-34.70,-52.39,-55.49,-50.99
2020/11/17 04:33:16+0000,-36.72,-50.18,-34.04,-52.44,-56.27,-52.20
2020/11/17 04:34:08+0000,-36.07,-45.58,-34.37,-52.73,-56.08,-52.42
2020/11/17 04:35:00+0000,-36.19,-50.68,-34.51,-52.55,-55.89,-51.40
2020/11/17 04:35:52+0000,-35.77,-48.05,-34.90,-52.22,-56.22,-52.76
2020/11/17 04:36:44+0000,-36.77,-45.78,-34.40,-52.61,-55.71,-52.15
2020/11/17 04:37:36+0000,-35.06,-46.26,-34.50,-53.20,-55.74,-51.08
2020/11/17 04:38:28+0000,-36.58,-46.29,-34.70,-53.26,-55.67,-50.64
2020/11/17 04:39:20+0000,-36.49,-46.65,-34.61,-53.70,-55.65,-53.51
2020/11/17 04:40:12+0000,-36.40,-46.24,-34.88,-52.14,-55.95,-52.03
2020/11/17 04:41:11+0000,-35.22,-45.52,-34.66,-52.52,-56.47,-52.40
2020/11/17 04:42:03+0000,-37.82,-46.94,-34.44,-52.98,-55.89,-52.03
2020/11/17 04:42:56+0000,-37.64,-45.57,-33.97,-52.95,-56.47,-54.02